RYR51XY LFMU-EGGW

Flight info

Callsign RYR51XY
Flight time 1h 41m
Altitude 36000
Route FJR DCT NG DCT MOLEN DCT MTL DCT ETREK DCT MADOT DCT MOPEM DCT CACHI DCT AVLON DCT OKRIX DCT BRY DCT CLM DCT KOPOR DCT PIREG DCT SOSUN DCT SUBIP UM733 UNDUG
Aircraft B738/M-SDE2E3FGHIRWXY/LB1

Departure

Time 2026-04-20 14:57
Airport Béziers Vias airport (LFMU)

Arrival

Time 2026-04-20 16:39
Airport London Luton Airport (EGGW)
Time Latitude Longitude Altitude Speed Heading
2026-04-20 14:48 43.32149 3.35380 57 ft 0 kts 147°
2026-04-20 14:53 43.32145 3.35382 57 ft 2 kts 157°
2026-04-20 14:53 43.32131 3.35353 54 ft 7 kts 287°
2026-04-20 14:54 43.32193 3.35328 56 ft 11 kts
2026-04-20 14:54 43.32267 3.35329 55 ft 10 kts
2026-04-20 14:54 43.32336 3.35313 55 ft 11 kts 311°
2026-04-20 14:54 43.32354 3.35189 49 ft 16 kts 275°
2026-04-20 14:55 43.32362 3.35001 57 ft 24 kts 274°
2026-04-20 14:55 43.32377 3.34748 58 ft 29 kts 273°
2026-04-20 14:55 43.32393 3.34458 60 ft 27 kts 275°
2026-04-20 14:55 43.32388 3.34251 56 ft 16 kts 247°
2026-04-20 14:56 43.32413 3.34229 59 ft 7 kts 84°
2026-04-20 14:56 43.32410 3.34244 59 ft 0 kts 107°
2026-04-20 14:56 43.32395 3.34440 60 ft 57 kts 93°
2026-04-20 14:57 43.32345 3.35349 57 ft 129 kts 94°
2026-04-20 14:57 43.32257 3.36816 261 ft 167 kts 98°
2026-04-20 14:57 43.32158 3.38383 1056 ft 165 kts 96°
2026-04-20 14:57 43.32102 3.40025 1680 ft 183 kts 84°
2026-04-20 14:58 43.32665 3.41705 1975 ft 212 kts 43°
2026-04-20 14:58 43.33810 3.43117 2445 ft 226 kts 41°
2026-04-20 14:58 43.34941 3.44654 3129 ft 235 kts 44°
2026-04-20 14:58 43.36135 3.46381 3466 ft 263 kts 44°
2026-04-20 14:59 43.37376 3.48268 4288 ft 268 kts 47°
2026-04-20 14:59 43.38609 3.50212 5198 ft 272 kts 47°
2026-04-20 14:59 43.39842 3.52214 6018 ft 278 kts 47°
2026-04-20 14:59 43.41091 3.54276 6846 ft 283 kts 48°
2026-04-20 15:00 43.42350 3.56371 7665 ft 285 kts 48°
2026-04-20 15:00 43.43627 3.58500 8451 ft 292 kts 48°
2026-04-20 15:00 43.44774 3.60840 9227 ft 299 kts 59°
2026-04-20 15:00 43.45719 3.63419 10052 ft 304 kts 62°
2026-04-20 15:01 43.46643 3.66107 10487 ft 322 kts 63°
2026-04-20 15:01 43.47639 3.69000 10686 ft 347 kts 62°
2026-04-20 15:01 43.48707 3.72060 11166 ft 359 kts 62°
2026-04-20 15:01 43.49808 3.75178 11869 ft 364 kts 62°
2026-04-20 15:02 43.50929 3.78325 12669 ft 367 kts 62°
2026-04-20 15:02 43.52063 3.81492 13458 ft 371 kts 61°
2026-04-20 15:02 43.53215 3.84702 14144 ft 376 kts 61°
2026-04-20 15:02 43.54382 3.87950 14774 ft 380 kts 61°
2026-04-20 15:03 43.55560 3.91235 15443 ft 385 kts 61°
2026-04-20 15:03 43.56736 3.94516 16107 ft 388 kts 61°
2026-04-20 15:03 43.57982 3.97820 16829 ft 388 kts 54°
2026-04-20 15:03 43.59659 4.00721 17522 ft 387 kts 44°
2026-04-20 15:04 43.61487 4.03461 18200 ft 390 kts 43°
2026-04-20 15:04 43.63350 4.06206 18751 ft 394 kts 43°
2026-04-20 15:04 43.65228 4.08997 19276 ft 399 kts 43°
2026-04-20 15:04 43.67113 4.11838 19795 ft 403 kts 44°
2026-04-20 15:05 43.69006 4.14726 20335 ft 407 kts 44°
2026-04-20 15:05 43.70907 4.17651 20870 ft 411 kts 44°
2026-04-20 15:05 43.72827 4.20616 21368 ft 416 kts 44°
2026-04-20 15:05 43.74768 4.23619 21822 ft 422 kts 44°
2026-04-20 15:06 43.76733 4.26665 22290 ft 427 kts 44°
2026-04-20 15:06 43.78721 4.29749 22752 ft 432 kts 44°
2026-04-20 15:06 43.80728 4.32864 23258 ft 435 kts 44°
2026-04-20 15:06 43.82751 4.36006 23716 ft 438 kts 44°
2026-04-20 15:07 43.84925 4.38950 24120 ft 436 kts 34°
2026-04-20 15:07 43.87401 4.41340 24557 ft 433 kts 25°
2026-04-20 15:07 43.90098 4.43143 24994 ft 429 kts 16°
2026-04-20 15:07 43.92889 4.44613 25430 ft 430 kts 15°
2026-04-20 15:08 43.95702 4.46060 25864 ft 432 kts 15°
2026-04-20 15:08 43.98521 4.47532 26308 ft 434 kts 15°
2026-04-20 15:08 44.01348 4.49041 26689 ft 437 kts 16°
2026-04-20 15:08 44.04191 4.50579 27054 ft 440 kts 16°
2026-04-20 15:09 44.07056 4.52131 27424 ft 443 kts 16°
2026-04-20 15:09 44.09941 4.53669 27773 ft 446 kts 16°
2026-04-20 15:09 44.12849 4.55207 28146 ft 448 kts 15°
2026-04-20 15:09 44.15772 4.56751 28506 ft 451 kts 15°
2026-04-20 15:10 44.18714 4.58307 28817 ft 455 kts 15°
2026-04-20 15:10 44.21681 4.59880 29116 ft 458 kts 15°
2026-04-20 15:10 44.24672 4.61471 29417 ft 461 kts 15°
2026-04-20 15:10 44.27674 4.63071 29744 ft 463 kts 15°
2026-04-20 15:11 44.30689 4.64681 30048 ft 466 kts 15°
2026-04-20 15:11 44.33722 4.66304 30345 ft 467 kts 15°
2026-04-20 15:11 44.36745 4.67924 30785 ft 464 kts 15°
2026-04-20 15:11 44.39749 4.69536 31274 ft 460 kts 15°
2026-04-20 15:12 44.42728 4.71135 31728 ft 457 kts 15°
2026-04-20 15:12 44.45693 4.72725 32122 ft 456 kts 15°
2026-04-20 15:12 44.48659 4.74317 32432 ft 456 kts 15°
2026-04-20 15:12 44.51622 4.75885 32813 ft 453 kts 12°
2026-04-20 15:13 44.54644 4.76933 33267 ft 442 kts
2026-04-20 15:13 44.57670 4.77279 33704 ft 432 kts 354°
2026-04-20 15:13 44.60631 4.77018 34067 ft 423 kts 345°
2026-04-20 15:13 44.63535 4.76369 34341 ft 422 kts 345°
2026-04-20 15:14 44.65455 4.75919 34490 ft 422 kts 344°
2026-04-20 15:14 44.68357 4.75233 34707 ft 423 kts 345°
2026-04-20 15:14 44.71259 4.74559 34993 ft 422 kts 345°
2026-04-20 15:14 44.74149 4.73898 35306 ft 420 kts 345°
2026-04-20 15:15 44.77023 4.73250 35592 ft 419 kts 345°
2026-04-20 15:15 44.79919 4.72602 35792 ft 420 kts 345°
2026-04-20 15:15 44.82808 4.71958 35966 ft 422 kts 345°
2026-04-20 15:16 44.88652 4.70655 35966 ft 426 kts 345°
2026-04-20 15:16 44.94485 4.69358 35959 ft 421 kts 345°
2026-04-20 15:17 45.00285 4.68063 35985 ft 418 kts 345°
2026-04-20 15:17 45.05998 4.66782 35986 ft 413 kts 345°
2026-04-20 15:18 45.11646 4.65513 36007 ft 409 kts 345°
2026-04-20 15:18 45.17261 4.64248 35995 ft 408 kts 345°
2026-04-20 15:19 45.22857 4.62979 36004 ft 407 kts 345°
2026-04-20 15:19 45.28472 4.61689 36005 ft 412 kts 345°
2026-04-20 15:20 45.34184 4.60373 36017 ft 417 kts 345°
2026-04-20 15:20 45.39911 4.59060 36023 ft 417 kts 345°
2026-04-20 15:21 45.45637 4.57742 36024 ft 417 kts 345°
2026-04-20 15:21 45.51365 4.56421 36030 ft 417 kts 344°
2026-04-20 15:22 45.57080 4.55099 36020 ft 415 kts 344°
2026-04-20 15:22 45.62773 4.53780 36017 ft 413 kts 344°
2026-04-20 15:23 45.68438 4.52463 36028 ft 411 kts 344°
2026-04-20 15:23 45.74084 4.51150 36042 ft 410 kts 344°
2026-04-20 15:24 45.79715 4.49840 36031 ft 409 kts 344°
2026-04-20 15:24 45.85369 4.48523 36033 ft 408 kts 344°
2026-04-20 15:25 45.90969 4.47219 36043 ft 408 kts 344°
2026-04-20 15:25 45.96562 4.45913 36035 ft 407 kts 344°
2026-04-20 15:26 46.02150 4.44602 36037 ft 407 kts 344°
2026-04-20 15:26 46.07743 4.43280 36048 ft 408 kts 344°
2026-04-20 15:27 46.13364 4.41955 36050 ft 410 kts 344°
2026-04-20 15:27 46.19004 4.40624 36034 ft 411 kts 344°
2026-04-20 15:28 46.24655 4.39288 36030 ft 412 kts 344°
2026-04-20 15:28 46.30289 4.37845 36053 ft 410 kts 341°
2026-04-20 15:29 46.35873 4.35911 36043 ft 409 kts 339°
2026-04-20 15:29 46.41388 4.33908 36043 ft 409 kts 340°
2026-04-20 15:30 46.46914 4.31935 36049 ft 409 kts 340°
2026-04-20 15:30 46.52448 4.29982 36046 ft 409 kts 340°
2026-04-20 15:31 46.57987 4.28031 36053 ft 412 kts 340°
2026-04-20 15:31 46.63626 4.26036 36056 ft 422 kts 340°
2026-04-20 15:32 46.69422 4.23985 36049 ft 428 kts 340°
2026-04-20 15:32 46.75218 4.21936 36045 ft 429 kts 340°
2026-04-20 15:33 46.81027 4.19875 36037 ft 430 kts 340°
2026-04-20 15:33 46.86836 4.17809 36040 ft 429 kts 340°
2026-04-20 15:34 46.92624 4.15744 36062 ft 428 kts 340°
2026-04-20 15:34 46.98443 4.13662 36047 ft 427 kts 340°
2026-04-20 15:35 47.04210 4.11596 36037 ft 426 kts 340°
2026-04-20 15:35 47.09821 4.09052 36037 ft 418 kts 333°
2026-04-20 15:36 47.15176 4.05806 36056 ft 416 kts 332°
2026-04-20 15:36 47.20555 4.02529 36067 ft 416 kts 332°
2026-04-20 15:37 47.25911 3.99317 36066 ft 416 kts 332°
2026-04-20 15:37 47.31280 3.96117 36063 ft 416 kts 332°
2026-04-20 15:38 47.36655 3.92910 36077 ft 417 kts 332°
2026-04-20 15:38 47.42042 3.89687 36070 ft 418 kts 332°
2026-04-20 15:39 47.47434 3.86453 36075 ft 419 kts 332°
2026-04-20 15:39 47.52837 3.83206 36078 ft 419 kts 332°
2026-04-20 15:40 47.58254 3.79948 36090 ft 420 kts 333°
2026-04-20 15:40 47.63679 3.76697 36079 ft 421 kts 333°
2026-04-20 15:41 47.69100 3.73443 36084 ft 420 kts 333°
2026-04-20 15:41 47.74527 3.70175 36113 ft 420 kts 333°
2026-04-20 15:42 47.79951 3.66900 36094 ft 421 kts 333°
2026-04-20 15:42 47.85372 3.63620 36096 ft 421 kts 333°
2026-04-20 15:43 47.90793 3.60332 36081 ft 420 kts 333°
2026-04-20 15:43 47.96204 3.57044 36123 ft 420 kts 333°
2026-04-20 15:44 48.01614 3.53732 36107 ft 420 kts 333°
2026-04-20 15:44 48.07019 3.50403 36095 ft 420 kts 333°
2026-04-20 15:45 48.12430 3.47063 36099 ft 421 kts 333°
2026-04-20 15:45 48.16930 3.44281 36113 ft 421 kts 333°
2026-04-20 15:46 48.22351 3.40924 36102 ft 422 kts 333°
2026-04-20 15:46 48.27816 3.37531 36113 ft 422 kts 333°
2026-04-20 15:47 48.33248 3.34151 36116 ft 423 kts 333°
2026-04-20 15:47 48.38683 3.30762 36119 ft 423 kts 333°
2026-04-20 15:48 48.44163 3.27315 36136 ft 424 kts 333°
2026-04-20 15:48 48.49600 3.23846 36131 ft 425 kts 333°
2026-04-20 15:49 48.55045 3.20360 36133 ft 425 kts 333°
2026-04-20 15:49 48.60490 3.16872 36133 ft 425 kts 333°
2026-04-20 15:50 48.65939 3.13376 36143 ft 425 kts 333°
2026-04-20 15:50 48.71376 3.09879 36141 ft 424 kts 333°
2026-04-20 15:51 48.76803 3.06379 36146 ft 423 kts 333°
2026-04-20 15:51 48.82207 3.02887 36138 ft 422 kts 333°
2026-04-20 15:52 48.87431 2.98954 36154 ft 417 kts 327°
2026-04-20 15:52 48.92446 2.94521 36155 ft 417 kts 326°
2026-04-20 15:53 49.00001 2.87837 36152 ft 417 kts 326°
2026-04-20 15:53 49.05024 2.83409 36179 ft 417 kts 326°
2026-04-20 15:54 49.10056 2.78971 36164 ft 418 kts 326°
2026-04-20 15:54 49.15084 2.74527 36155 ft 417 kts 326°
2026-04-20 15:55 49.20101 2.70082 36154 ft 416 kts 326°
2026-04-20 15:55 49.25111 2.65631 36143 ft 416 kts 326°
2026-04-20 15:56 49.30140 2.61153 36168 ft 415 kts 326°
2026-04-20 15:56 49.35133 2.56697 36164 ft 415 kts 326°
2026-04-20 15:57 49.40112 2.52241 36169 ft 414 kts 326°
2026-04-20 15:57 49.45083 2.47783 36175 ft 413 kts 326°
2026-04-20 15:58 49.50045 2.43321 36212 ft 413 kts 325°
2026-04-20 15:58 49.54530 2.37935 36190 ft 408 kts 315°
2026-04-20 15:59 49.58726 2.32063 36182 ft 407 kts 315°
2026-04-20 15:59 49.62951 2.26176 36178 ft 406 kts 315°
2026-04-20 16:00 49.67120 2.20390 36178 ft 405 kts 316°
2026-04-20 16:00 49.71337 2.14533 36186 ft 405 kts 315°
2026-04-20 16:01 49.75515 2.08715 36193 ft 405 kts 315°
2026-04-20 16:01 49.79693 2.02882 36194 ft 404 kts 315°
2026-04-20 16:02 49.83868 1.97041 36196 ft 404 kts 315°
2026-04-20 16:02 49.87669 1.90693 36209 ft 401 kts 304°
2026-04-20 16:03 49.90298 1.83090 36210 ft 401 kts 292°
2026-04-20 16:03 49.92398 1.75008 36205 ft 401 kts 292°
2026-04-20 16:04 49.94504 1.66976 36203 ft 402 kts 292°
2026-04-20 16:04 49.96627 1.58932 36221 ft 403 kts 292°
2026-04-20 16:05 49.99406 1.51396 36214 ft 404 kts 306°
2026-04-20 16:05 50.03313 1.45107 36220 ft 407 kts 316°
2026-04-20 16:06 50.07599 1.39349 36218 ft 407 kts 317°
2026-04-20 16:06 50.11883 1.33573 36207 ft 407 kts 316°
2026-04-20 16:07 50.16176 1.27726 36222 ft 407 kts 316°
2026-04-20 16:07 50.20390 1.21956 36217 ft 393 kts 316°
2026-04-20 16:08 50.22410 1.19189 36206 ft 380 kts 316°
2026-04-20 16:08 50.24380 1.16482 36137 ft 376 kts 316°
2026-04-20 16:08 50.26362 1.13752 35564 ft 378 kts 316°
2026-04-20 16:08 50.28322 1.11050 35137 ft 376 kts 316°
2026-04-20 16:09 50.30271 1.08362 34797 ft 372 kts 315°
2026-04-20 16:09 50.32202 1.05696 34418 ft 369 kts 315°
2026-04-20 16:09 50.34114 1.03053 34022 ft 365 kts 315°
2026-04-20 16:09 50.36009 1.00431 33612 ft 362 kts 315°
2026-04-20 16:10 50.37881 0.97837 33241 ft 357 kts 315°
2026-04-20 16:10 50.39729 0.95275 32887 ft 353 kts 314°
2026-04-20 16:10 50.41555 0.92740 32527 ft 349 kts 314°
2026-04-20 16:10 50.43361 0.90231 32182 ft 345 kts 314°
2026-04-20 16:11 50.45151 0.87753 31863 ft 341 kts 314°
2026-04-20 16:11 50.46941 0.85357 31608 ft 335 kts 315°
2026-04-20 16:11 50.48709 0.83019 31353 ft 329 kts 315°
2026-04-20 16:11 50.50451 0.80710 31034 ft 326 kts 314°
2026-04-20 16:12 50.52172 0.78419 30706 ft 323 kts 314°
2026-04-20 16:12 50.53877 0.76142 30379 ft 320 kts 314°
2026-04-20 16:12 50.55565 0.73888 30031 ft 317 kts 314°
2026-04-20 16:12 50.57237 0.71663 29702 ft 312 kts 314°
2026-04-20 16:13 50.58885 0.69471 29349 ft 308 kts 314°
2026-04-20 16:13 50.60512 0.67305 29015 ft 304 kts 314°
2026-04-20 16:13 50.62116 0.65165 28672 ft 301 kts 314°
2026-04-20 16:13 50.63704 0.63044 28351 ft 297 kts 314°
2026-04-20 16:14 50.65271 0.60949 28059 ft 294 kts 314°
2026-04-20 16:14 50.66319 0.59545 27822 ft 292 kts 314°
2026-04-20 16:14 50.67860 0.57482 27504 ft 289 kts 315°
2026-04-20 16:14 50.69381 0.55443 27189 ft 285 kts 315°
2026-04-20 16:15 50.70885 0.53424 26860 ft 283 kts 315°
2026-04-20 16:15 50.72374 0.51423 26563 ft 280 kts 315°
2026-04-20 16:15 50.73851 0.49438 26239 ft 277 kts 315°
2026-04-20 16:15 50.75311 0.47476 25945 ft 274 kts 315°
2026-04-20 16:16 50.76756 0.45531 25612 ft 272 kts 315°
2026-04-20 16:16 50.78192 0.43597 25329 ft 270 kts 315°
2026-04-20 16:16 50.79623 0.41665 25024 ft 270 kts 315°
2026-04-20 16:16 50.81053 0.39732 24734 ft 272 kts 315°
2026-04-20 16:17 50.82509 0.37759 24445 ft 281 kts 315°
2026-04-20 16:17 50.84008 0.35725 24132 ft 286 kts 316°
2026-04-20 16:17 50.85539 0.33651 23802 ft 285 kts 316°
2026-04-20 16:17 50.87042 0.31615 23430 ft 283 kts 316°
2026-04-20 16:18 50.88526 0.29603 23149 ft 279 kts 316°
2026-04-20 16:18 50.89995 0.27608 22826 ft 276 kts 316°
2026-04-20 16:18 50.91448 0.25633 22505 ft 274 kts 316°
2026-04-20 16:18 50.92885 0.23677 22201 ft 271 kts 316°
2026-04-20 16:19 50.94311 0.21734 21886 ft 269 kts 316°
2026-04-20 16:19 50.95725 0.19806 21587 ft 267 kts 317°
2026-04-20 16:19 50.97129 0.17891 21276 ft 266 kts 317°
2026-04-20 16:19 50.98524 0.15985 20965 ft 264 kts 317°
2026-04-20 16:20 50.99915 0.14084 20661 ft 263 kts 317°
2026-04-20 16:20 51.01298 0.12193 20353 ft 262 kts 317°
2026-04-20 16:20 51.02721 0.10411 20240 ft 259 kts 322°
2026-04-20 16:20 51.04221 0.08741 20121 ft 271 kts 323°
2026-04-20 16:21 51.05811 0.07007 19995 ft 282 kts 323°
2026-04-20 16:21 51.07448 0.05238 19870 ft 283 kts 324°
2026-04-20 16:21 51.09111 0.03491 19351 ft 286 kts 324°
2026-04-20 16:21 51.10820 0.01706 18315 ft 304 kts 325°
2026-04-20 16:22 51.12564 -0.00112 18031 ft 299 kts 325°
2026-04-20 16:22 51.14347 -0.01976 17667 ft 323 kts 325°
2026-04-20 16:22 51.16324 -0.04049 17268 ft 346 kts 325°
2026-04-20 16:22 51.18355 -0.06179 16847 ft 351 kts 325°
2026-04-20 16:23 51.20384 -0.08310 16425 ft 348 kts 325°
2026-04-20 16:23 51.22402 -0.10432 16027 ft 347 kts 325°
2026-04-20 16:23 51.24451 -0.12590 15618 ft 346 kts 325°
2026-04-20 16:23 51.26409 -0.14656 15234 ft 343 kts 325°
2026-04-20 16:24 51.28390 -0.16749 14841 ft 341 kts 325°
2026-04-20 16:24 51.30398 -0.18872 14458 ft 341 kts 325°
2026-04-20 16:24 51.32408 -0.21002 14064 ft 343 kts 325°
2026-04-20 16:24 51.34423 -0.23139 13635 ft 344 kts 326°
2026-04-20 16:25 51.36419 -0.25257 13206 ft 342 kts 326°
2026-04-20 16:25 51.38352 -0.27311 13043 ft 324 kts 326°
2026-04-20 16:25 51.40172 -0.29245 12896 ft 305 kts 326°
2026-04-20 16:25 51.41886 -0.31069 12774 ft 287 kts 326°
2026-04-20 16:26 51.43503 -0.32792 12635 ft 272 kts 326°
2026-04-20 16:26 51.45061 -0.34453 12204 ft 266 kts 326°
2026-04-20 16:26 51.46596 -0.36092 11577 ft 263 kts 326°
2026-04-20 16:26 51.48117 -0.37717 10917 ft 261 kts 326°
2026-04-20 16:27 51.49673 -0.39381 10101 ft 263 kts 327°
2026-04-20 16:27 51.51243 -0.41062 9371 ft 259 kts 327°
2026-04-20 16:27 51.52699 -0.42621 8668 ft 257 kts 327°
2026-04-20 16:27 51.54192 -0.44224 7932 ft 254 kts 329°
2026-04-20 16:28 51.55670 -0.45809 7126 ft 256 kts 329°
2026-04-20 16:28 51.57134 -0.47381 6361 ft 256 kts 329°
2026-04-20 16:28 51.58614 -0.48969 5657 ft 254 kts 329°
2026-04-20 16:28 51.60089 -0.50555 4967 ft 251 kts 329°
2026-04-20 16:29 51.61534 -0.52110 4357 ft 249 kts 329°
2026-04-20 16:29 51.62990 -0.53678 4159 ft 252 kts 329°
2026-04-20 16:29 51.64440 -0.55241 4034 ft 248 kts 329°
2026-04-20 16:29 51.65804 -0.56717 3980 ft 223 kts 330°
2026-04-20 16:30 51.67046 -0.58062 3966 ft 203 kts 329°
2026-04-20 16:30 51.68208 -0.59311 3978 ft 196 kts 329°
2026-04-20 16:30 51.69340 -0.60537 3972 ft 196 kts 329°
2026-04-20 16:30 51.70451 -0.61739 3951 ft 186 kts 329°
2026-04-20 16:31 51.71495 -0.62871 3851 ft 175 kts 331°
2026-04-20 16:31 51.72483 -0.63939 3688 ft 168 kts 330°
2026-04-20 16:31 51.73445 -0.64971 3497 ft 164 kts 332°
2026-04-20 16:31 51.74396 -0.65993 3190 ft 166 kts 332°
2026-04-20 16:32 51.75373 -0.67053 3071 ft 179 kts 330°
2026-04-20 16:32 51.76431 -0.68200 3030 ft 184 kts 331°
2026-04-20 16:32 51.77516 -0.69375 3005 ft 190 kts 330°
2026-04-20 16:32 51.78595 -0.70549 2992 ft 188 kts 330°
2026-04-20 16:33 51.79728 -0.71554 2970 ft 180 kts 353°
2026-04-20 16:33 51.80878 -0.71184 2992 ft 172 kts 35°
2026-04-20 16:33 51.81584 -0.69702 2994 ft 169 kts 70°
2026-04-20 16:33 51.82002 -0.67910 3006 ft 172 kts 66°
2026-04-20 16:34 51.82417 -0.66086 2997 ft 171 kts 70°
2026-04-20 16:34 51.82764 -0.64249 2986 ft 171 kts 71°
2026-04-20 16:34 51.83087 -0.62406 2995 ft 169 kts 72°
2026-04-20 16:34 51.83400 -0.60573 2982 ft 169 kts 73°
2026-04-20 16:35 51.83711 -0.58741 2988 ft 172 kts 72°
2026-04-20 16:35 51.84036 -0.56841 2890 ft 178 kts 73°
2026-04-20 16:35 51.84260 -0.55529 2763 ft 178 kts 73°
2026-04-20 16:35 51.84584 -0.53628 2514 ft 173 kts 72°
2026-04-20 16:36 51.84898 -0.51785 2282 ft 165 kts 72°
2026-04-20 16:36 51.85196 -0.50038 2092 ft 152 kts 72°
2026-04-20 16:36 51.85473 -0.48418 1842 ft 140 kts 71°
2026-04-20 16:36 51.85723 -0.46963 1697 ft 127 kts 71°
2026-04-20 16:37 51.85992 -0.45419 1485 ft 125 kts 71°
2026-04-20 16:37 51.86230 -0.44174 1335 ft 125 kts 71°
2026-04-20 16:37 51.86456 -0.42707 1181 ft 127 kts 72°
2026-04-20 16:37 51.86678 -0.41403 965 ft 127 kts 71°
2026-04-20 16:38 51.86969 -0.39759 750 ft 133 kts 74°
2026-04-20 16:38 51.86991 -0.39611 727 ft 134 kts 73°
2026-04-20 16:38 51.87575 -0.36198 517 ft 50 kts 74°
2026-04-20 16:39 51.87608 -0.36007 515 ft 13 kts 74°
2026-04-20 16:39 51.87667 -0.35920 515 ft 12 kts
2026-04-20 16:39 51.87753 -0.35965 515 ft 14 kts 328°
2026-04-20 16:39 51.87781 -0.36091 519 ft 12 kts 258°
2026-04-20 16:40 51.87765 -0.36183 517 ft 7 kts 252°
2026-04-20 16:40 51.87749 -0.36272 517 ft 18 kts 254°
2026-04-20 16:40 51.87694 -0.36597 520 ft 18 kts 255°
2026-04-20 16:40 51.87661 -0.36789 523 ft 13 kts 255°
2026-04-20 16:41 51.87719 -0.36876 518 ft 16 kts 337°
2026-04-20 16:41 51.87807 -0.36920 512 ft 9 kts 336°
2026-04-20 16:41 51.87844 -0.37021 511 ft 10 kts 309°
2026-04-20 16:41 51.87933 -0.37087 508 ft 19 kts 344°
2026-04-20 16:42 51.88073 -0.37162 507 ft 24 kts 342°
2026-04-20 16:42 51.88219 -0.37247 516 ft 19 kts 323°
2026-04-20 16:42 51.88209 -0.37432 515 ft 16 kts 251°
2026-04-20 16:42 51.88207 -0.37579 515 ft 12 kts 257°
2026-04-20 16:43 51.88172 -0.37687 522 ft 12 kts 239°
2026-04-20 16:43 51.88117 -0.37806 522 ft 12 kts 221°
2026-04-20 16:43 51.88060 -0.37877 522 ft 6 kts 198°
2026-04-20 16:43 51.88038 -0.37862 522 ft 4 kts 144°
2026-04-20 16:44 51.88024 -0.37836 522 ft 3 kts 128°
2026-04-20 16:44 51.88021 -0.37830 522 ft 0 kts 129°